Location: *
(37.5724°S, 58.0067°E)
Time: 09:15:07
(UTC+00:00)

CZ-3A R/B - Pass Details

Date: 26 January 2021
Orbit: 1317 x 30229 km, 55.5° (Epoch: 26 February)

Event Time Altitude Azimuth Distance (km) Brightness Sun altitude
Rises 18:30:48 0° 341° (NNW) 34,053 10.5 -28.2°
Reaches altitude 10° 19:52:07 10° 332° (NNW) 25,791 9.8 -33.5°
Maximum altitude 21:30:24 85° 228° (SW) 3,793 5.8 -31.6°
Drops below altitude 10° 21:41:22 10° 136° (SE) 4,310 7.1 -30.8°
Sets 21:43:22 0° 135° (SE) 4,947 7.6 -30.7°
